This is the latest recevied weather packets stored in our database for station/object W6MAF. If no packets are shown the sender has not sent any weather packets the latest 10 day(s).
| Time | Temp. | Humidity | Pressure | Rain* | Wind** | Luminosity | Snow |
|---|---|---|---|---|---|---|---|
| 1788443617 | 12.22° C | 55% | - | 0 mm | 0.45 m/s, 180° | - | - |
| 1788443319 | 12.22° C | 55% | - | 0 mm | 0 m/s | - | - |
| 1788443022 | 12.22° C | 55% | - | 0 mm | 0.89 m/s, 172° | - | - |
| 1788442724 | 12.22° C | 55% | - | 0 mm | 1.79 m/s, 207° | - | - |
| 1788442423 | 12.22° C | 55% | - | 0 mm | 1.79 m/s, 208° | - | - |
| 1788442125 | 12.22° C | 54% | - | 0 mm | 1.79 m/s, 222° | - | - |
| 1788441828 | 12.22° C | 54% | - | 0 mm | 1.34 m/s, 212° | - | - |
| 1788441530 | 12.22° C | 53% | - | 0 mm | 1.34 m/s, 138° | - | - |
| 1788441232 | 12.22° C | 53% | - | 0 mm | 0.45 m/s, 188° | - | - |
| 1788440934 | 12.22° C | 53% | - | 0 mm | 0.89 m/s, 207° | - | - |
| 1788440634 | 12.22° C | 53% | - | 0 mm | 0.89 m/s, 248° | - | - |
| 1788440336 | 12.22° C | 52% | - | 0 mm | 0.45 m/s, 187° | - | - |
| 1788440038 | 12.22° C | 52% | - | 0 mm | 0.89 m/s, 198° | - | - |
| 1788439740 | 12.22° C | 52% | - | 0 mm | 1.34 m/s, 246° | - | - |
| 1788439443 | 12.22° C | 52% | - | 0 mm | 0.45 m/s, 256° | - | - |
| 1788439145 | 12.22° C | 52% | - | 0 mm | 5.81 m/s, 203° | - | - |
| 1788438844 | 12.22° C | 52% | - | 0 mm | 5.81 m/s, 232° | - | - |
| 1788438546 | 12.22° C | 52% | - | 0 mm | 3.58 m/s, 226° | - | - |
| 1788438249 | 12.22° C | 51% | - | 0 mm | 5.81 m/s, 235° | - | - |
| 1788437951 | 12.22° C | 51% | - | 0 mm | 6.26 m/s, 218° | - | - |
| 1788437653 | 12.22° C | 51% | - | 0 mm | 4.92 m/s, 201° | - | - |
| 1788437356 | 12.22° C | 51% | - | 0 mm | 4.47 m/s, 232° | - | - |
| 1788437055 | 12.78° C | 51% | - | 0 mm | 5.36 m/s, 255° | - | - |
| 1788436757 | 12.78° C | 50% | - | 0 mm | 4.92 m/s, 229° | - | - |
| 1788436459 | 12.78° C | 51% | - | 0 mm | 5.81 m/s, 191° | - | - |
* Rain latest hour (hover to see other rain measurements)
** Current wind speed in m/s (hover to see current wind gust speed)